Year,Month,Day,Hour,Minute,Value (Times are PST for temperature in C)
2010,08,14,00,00,21.30
2010,08,14,00,01,21.30
2010,08,14,00,02,21.30
2010,08,14,00,03,21.30
2010,08,14,00,04,21.30
2010,08,14,00,05,21.30
2010,08,14,00,06,21.30
2010,08,14,00,07,21.30
2010,08,14,00,08,21.30
2010,08,14,00,09,21.30
2010,08,14,00,10,21.30
2010,08,14,00,11,21.30
2010,08,14,00,12,21.30
2010,08,14,00,13,21.30
2010,08,14,00,14,21.40
2010,08,14,00,15,21.40
2010,08,14,00,16,21.50
2010,08,14,00,17,21.50
2010,08,14,00,18,21.50
2010,08,14,00,19,21.60
2010,08,14,00,20,21.50
2010,08,14,00,21,21.40
2010,08,14,00,22,21.40
2010,08,14,00,23,21.40
2010,08,14,00,24,21.40
2010,08,14,00,25,21.40
2010,08,14,00,26,21.40
2010,08,14,00,27,21.40
2010,08,14,00,28,21.40
2010,08,14,00,29,21.50
2010,08,14,00,30,21.60
2010,08,14,00,31,21.60
2010,08,14,00,32,21.60
2010,08,14,00,33,21.60
2010,08,14,00,34,21.60
2010,08,14,00,35,21.60
2010,08,14,00,36,21.60
2010,08,14,00,37,21.60
2010,08,14,00,38,21.60
2010,08,14,00,39,21.60
2010,08,14,00,40,21.60
2010,08,14,00,41,21.60
2010,08,14,00,42,21.50
2010,08,14,00,43,21.40
2010,08,14,00,44,21.40
2010,08,14,00,45,21.30
2010,08,14,00,46,21.30
2010,08,14,00,47,21.30
2010,08,14,00,48,21.30
2010,08,14,00,49,21.30
2010,08,14,00,50,21.30
2010,08,14,00,51,21.20
2010,08,14,00,52,21.20
2010,08,14,00,53,21.10
2010,08,14,00,54,21.10
2010,08,14,00,55,21.10
2010,08,14,00,56,21.00
2010,08,14,00,57,21.00
2010,08,14,00,58,21.00
2010,08,14,00,59,20.90
2010,08,14,01,00,20.90
2010,08,14,01,01,20.90
2010,08,14,01,02,20.90
2010,08,14,01,03,20.90
2010,08,14,01,04,20.90
2010,08,14,01,05,20.90
2010,08,14,01,06,20.90
2010,08,14,01,07,20.90
2010,08,14,01,08,21.00
2010,08,14,01,09,21.00
2010,08,14,01,10,21.00
2010,08,14,01,11,21.00
2010,08,14,01,12,21.00
2010,08,14,01,13,20.90
2010,08,14,01,14,20.90
2010,08,14,01,15,20.90
2010,08,14,01,16,20.90
2010,08,14,01,17,20.90
2010,08,14,01,18,20.90
2010,08,14,01,19,20.90
2010,08,14,01,20,20.90
2010,08,14,01,21,20.90
2010,08,14,01,22,20.90
2010,08,14,01,23,20.80
2010,08,14,01,24,20.80
2010,08,14,01,25,20.80
2010,08,14,01,26,20.80
2010,08,14,01,27,20.70
2010,08,14,01,28,20.70
2010,08,14,01,29,20.70
2010,08,14,01,30,20.60
2010,08,14,01,31,20.60
2010,08,14,01,32,20.60
2010,08,14,01,33,20.60
2010,08,14,01,34,20.50
2010,08,14,01,35,20.50
2010,08,14,01,36,20.50
2010,08,14,01,37,20.50
2010,08,14,01,38,20.50
2010,08,14,01,39,20.40
2010,08,14,01,40,20.40
2010,08,14,01,41,20.40
2010,08,14,01,42,20.30
2010,08,14,01,43,20.30
2010,08,14,01,44,20.30
2010,08,14,01,45,20.30
2010,08,14,01,46,20.30
2010,08,14,01,47,20.40
2010,08,14,01,48,20.50
2010,08,14,01,49,20.70
2010,08,14,01,50,20.80
2010,08,14,01,51,20.90
2010,08,14,01,52,21.10
2010,08,14,01,53,21.20
2010,08,14,01,54,21.30
2010,08,14,01,55,21.30
2010,08,14,01,56,21.30
2010,08,14,01,57,21.30
2010,08,14,01,58,21.30
2010,08,14,01,59,21.30
2010,08,14,02,00,21.40
2010,08,14,02,01,21.60
2010,08,14,02,02,21.60
2010,08,14,02,03,21.70
2010,08,14,02,04,21.80
2010,08,14,02,05,22.00
2010,08,14,02,06,22.10
2010,08,14,02,07,22.20
2010,08,14,02,08,22.30
2010,08,14,02,09,22.40
2010,08,14,02,10,22.40
2010,08,14,02,11,22.40
2010,08,14,02,12,22.40
2010,08,14,02,13,22.30
2010,08,14,02,14,22.30
2010,08,14,02,15,22.20
2010,08,14,02,16,22.20
2010,08,14,02,17,22.10
2010,08,14,02,18,22.10
2010,08,14,02,19,22.10
2010,08,14,02,20,22.10
2010,08,14,02,21,22.20
2010,08,14,02,22,22.20
2010,08,14,02,23,22.20
2010,08,14,02,24,22.30
2010,08,14,02,25,22.40
2010,08,14,02,26,22.40
2010,08,14,02,27,22.40
2010,08,14,02,28,22.40
2010,08,14,02,29,22.40
2010,08,14,02,30,22.40
2010,08,14,02,31,22.30
2010,08,14,02,32,22.30
2010,08,14,02,33,22.30
2010,08,14,02,34,22.30
2010,08,14,02,35,22.30
2010,08,14,02,36,22.30
2010,08,14,02,37,22.30
2010,08,14,02,38,22.30
2010,08,14,02,39,22.30
2010,08,14,02,40,22.30
2010,08,14,02,41,22.20
2010,08,14,02,42,22.20
2010,08,14,02,43,22.20
2010,08,14,02,44,22.10
2010,08,14,02,45,22.10
2010,08,14,02,46,22.10
2010,08,14,02,47,22.00
2010,08,14,02,48,22.00
2010,08,14,02,49,22.00
2010,08,14,02,50,21.90
2010,08,14,02,51,21.90
2010,08,14,02,52,21.90
2010,08,14,02,53,21.90
2010,08,14,02,54,21.90
2010,08,14,02,55,21.90
2010,08,14,02,56,21.90
2010,08,14,02,57,21.90
2010,08,14,02,58,21.90
2010,08,14,02,59,22.00
2010,08,14,03,00,22.00
2010,08,14,03,01,22.00
2010,08,14,03,02,22.00
2010,08,14,03,03,22.10
2010,08,14,03,04,22.10
2010,08,14,03,05,22.10
2010,08,14,03,06,22.10
2010,08,14,03,07,22.10
2010,08,14,03,08,22.20
2010,08,14,03,09,22.20
2010,08,14,03,10,22.30
2010,08,14,03,11,22.30
2010,08,14,03,12,22.40
2010,08,14,03,13,22.40
2010,08,14,03,14,22.40
2010,08,14,03,15,22.40
2010,08,14,03,16,22.40
2010,08,14,03,17,22.40
2010,08,14,03,18,22.40
2010,08,14,03,19,22.40
2010,08,14,03,20,22.40
2010,08,14,03,21,22.40
2010,08,14,03,22,22.40
2010,08,14,03,23,22.40
2010,08,14,03,24,22.40
2010,08,14,03,25,22.40
2010,08,14,03,26,22.40
2010,08,14,03,27,22.40
2010,08,14,03,28,22.40
2010,08,14,03,29,22.40
2010,08,14,03,30,22.40
2010,08,14,03,31,22.30
2010,08,14,03,32,22.30
2010,08,14,03,33,22.30
2010,08,14,03,34,22.20
2010,08,14,03,35,22.20
2010,08,14,03,36,22.20
2010,08,14,03,37,22.10
2010,08,14,03,38,22.10
2010,08,14,03,39,22.10
2010,08,14,03,40,22.10
2010,08,14,03,41,22.10
2010,08,14,03,42,22.10
2010,08,14,03,43,22.20
2010,08,14,03,44,22.20
2010,08,14,03,45,22.20
2010,08,14,03,46,22.30
2010,08,14,03,47,22.30
2010,08,14,03,48,22.30
2010,08,14,03,49,22.30
2010,08,14,03,50,22.40
2010,08,14,03,51,22.30
2010,08,14,03,52,22.30
2010,08,14,03,53,22.30
2010,08,14,03,54,22.20
2010,08,14,03,55,22.20
2010,08,14,03,56,22.10
2010,08,14,03,57,22.10
2010,08,14,03,58,22.10
2010,08,14,03,59,22.00
2010,08,14,04,00,22.00
2010,08,14,04,01,22.00
2010,08,14,04,02,22.00
2010,08,14,04,03,22.00
2010,08,14,04,04,21.90
2010,08,14,04,05,21.90
2010,08,14,04,06,21.80
2010,08,14,04,07,21.80
2010,08,14,04,08,21.70
2010,08,14,04,09,21.70
2010,08,14,04,10,21.70
2010,08,14,04,11,21.60
2010,08,14,04,12,21.60
2010,08,14,04,13,21.60
2010,08,14,04,14,21.60
2010,08,14,04,15,21.60
2010,08,14,04,16,21.60
2010,08,14,04,17,21.60
2010,08,14,04,18,21.60
2010,08,14,04,19,21.60
2010,08,14,04,20,21.60
2010,08,14,04,21,21.60
2010,08,14,04,22,21.60
2010,08,14,04,23,21.60
2010,08,14,04,24,21.60
2010,08,14,04,25,21.60
2010,08,14,04,26,21.60
2010,08,14,04,27,21.60
2010,08,14,04,28,21.60
2010,08,14,04,29,21.60
2010,08,14,04,30,21.60
2010,08,14,04,31,21.60
2010,08,14,04,32,21.60
2010,08,14,04,33,21.60
2010,08,14,04,34,21.60
2010,08,14,04,35,21.60
2010,08,14,04,36,21.60
2010,08,14,04,37,21.60
2010,08,14,04,38,21.60
2010,08,14,04,39,21.60
2010,08,14,04,40,21.60
2010,08,14,04,41,21.60
2010,08,14,04,42,21.60
2010,08,14,04,43,21.60
2010,08,14,04,44,21.60
2010,08,14,04,45,21.60
2010,08,14,04,46,21.60
2010,08,14,04,47,21.60
2010,08,14,04,48,21.60
2010,08,14,04,49,21.60
2010,08,14,04,50,21.60
2010,08,14,04,51,21.60
2010,08,14,04,52,21.60
2010,08,14,04,53,21.60
2010,08,14,04,54,21.60
2010,08,14,04,55,21.50
2010,08,14,04,56,21.40
2010,08,14,04,57,21.40
2010,08,14,04,58,21.40
2010,08,14,04,59,21.40
2010,08,14,05,00,21.30
2010,08,14,05,01,21.30
2010,08,14,05,02,21.30
2010,08,14,05,03,21.30
2010,08,14,05,04,21.30
2010,08,14,05,05,21.30
2010,08,14,05,06,21.30
2010,08,14,05,07,21.30
2010,08,14,05,08,21.30
2010,08,14,05,09,21.30
2010,08,14,05,10,21.30
2010,08,14,05,11,21.30
2010,08,14,05,12,21.30
2010,08,14,05,13,21.30
2010,08,14,05,14,21.30
2010,08,14,05,15,21.30
2010,08,14,05,16,21.30
2010,08,14,05,17,21.30
2010,08,14,05,18,21.30
2010,08,14,05,19,21.30
2010,08,14,05,20,21.30
2010,08,14,05,21,21.30
2010,08,14,05,22,21.30
2010,08,14,05,23,21.30
2010,08,14,05,24,21.30
2010,08,14,05,25,21.30
2010,08,14,05,26,21.30
2010,08,14,05,27,21.30
2010,08,14,05,28,21.30
2010,08,14,05,29,21.30
2010,08,14,05,30,21.30
2010,08,14,05,31,21.30
2010,08,14,05,32,21.30
2010,08,14,05,33,21.30
2010,08,14,05,34,21.30
2010,08,14,05,35,21.30
2010,08,14,05,36,21.30
2010,08,14,05,37,21.40
2010,08,14,05,38,21.60
2010,08,14,05,39,21.60
2010,08,14,05,40,21.60
2010,08,14,05,41,21.60
2010,08,14,05,42,21.60
2010,08,14,05,43,21.60
2010,08,14,05,44,21.60
2010,08,14,05,45,21.60
2010,08,14,05,46,21.60
2010,08,14,05,47,21.60
2010,08,14,05,48,21.60
2010,08,14,05,49,21.60
2010,08,14,05,50,21.60
2010,08,14,05,51,21.60
2010,08,14,05,52,21.60
2010,08,14,05,53,21.60
2010,08,14,05,54,21.50
2010,08,14,05,55,21.40
2010,08,14,05,56,21.40
2010,08,14,05,57,21.40
2010,08,14,05,58,21.40
2010,08,14,05,59,21.30
2010,08,14,06,00,21.30
2010,08,14,06,01,21.30
2010,08,14,06,02,21.30
2010,08,14,06,03,21.30
2010,08,14,06,04,21.30
2010,08,14,06,05,21.30
2010,08,14,06,06,21.30
2010,08,14,06,07,21.30
2010,08,14,06,08,21.30
2010,08,14,06,09,21.30
2010,08,14,06,10,21.20
2010,08,14,06,11,21.20
2010,08,14,06,12,21.20
2010,08,14,06,13,21.20
2010,08,14,06,14,21.20
2010,08,14,06,15,21.20
2010,08,14,06,16,21.20
2010,08,14,06,17,21.20
2010,08,14,06,18,21.20
2010,08,14,06,19,21.20
2010,08,14,06,20,21.30
2010,08,14,06,21,21.30
2010,08,14,06,22,21.30
2010,08,14,06,23,21.30
2010,08,14,06,24,21.30
2010,08,14,06,25,21.30
2010,08,14,06,26,21.40
2010,08,14,06,27,21.40
2010,08,14,06,28,21.40
2010,08,14,06,29,21.40
2010,08,14,06,30,21.40
2010,08,14,06,31,21.40
2010,08,14,06,32,21.40
2010,08,14,06,33,21.40
2010,08,14,06,34,21.40
2010,08,14,06,35,21.40
2010,08,14,06,36,21.40
2010,08,14,06,37,21.50
2010,08,14,06,38,21.60
2010,08,14,06,39,21.60
2010,08,14,06,40,21.60
2010,08,14,06,41,21.60
2010,08,14,06,42,21.60
2010,08,14,06,43,21.60
2010,08,14,06,44,21.60
2010,08,14,06,45,21.60
2010,08,14,06,46,21.70
2010,08,14,06,47,21.70
2010,08,14,06,48,21.70
2010,08,14,06,49,21.80
2010,08,14,06,50,21.80
2010,08,14,06,51,21.90
2010,08,14,06,52,21.90
2010,08,14,06,53,22.00
2010,08,14,06,54,22.00
2010,08,14,06,55,22.00
2010,08,14,06,56,22.00
2010,08,14,06,57,22.00
2010,08,14,06,58,22.00
2010,08,14,06,59,22.00
2010,08,14,07,00,22.00
2010,08,14,07,01,22.00
2010,08,14,07,02,22.00
2010,08,14,07,03,22.00
2010,08,14,07,04,22.00
2010,08,14,07,05,22.00
2010,08,14,07,06,22.00
2010,08,14,07,07,22.00
2010,08,14,07,08,22.00
2010,08,14,07,09,22.00
2010,08,14,07,10,22.00
2010,08,14,07,11,22.00
2010,08,14,07,12,22.10
2010,08,14,07,13,22.10
2010,08,14,07,14,22.10
2010,08,14,07,15,22.20
2010,08,14,07,16,22.20
2010,08,14,07,17,22.20
2010,08,14,07,18,22.30
2010,08,14,07,19,22.40
2010,08,14,07,20,22.40
2010,08,14,07,21,22.40
2010,08,14,07,22,22.40
2010,08,14,07,23,22.50
2010,08,14,07,24,22.50
2010,08,14,07,25,22.50
2010,08,14,07,26,22.50
2010,08,14,07,27,22.60
2010,08,14,07,28,22.60
2010,08,14,07,29,22.60
2010,08,14,07,30,22.60
2010,08,14,07,31,22.70
2010,08,14,07,32,22.70
2010,08,14,07,33,22.70
2010,08,14,07,34,22.70
2010,08,14,07,35,22.70
2010,08,14,07,36,22.70
2010,08,14,07,37,22.80
2010,08,14,07,38,22.80
2010,08,14,07,39,22.80
2010,08,14,07,40,22.80
2010,08,14,07,41,22.80
2010,08,14,07,42,22.80
2010,08,14,07,43,22.80
2010,08,14,07,44,22.80
2010,08,14,07,45,22.80
2010,08,14,07,46,22.80
2010,08,14,07,47,22.80
2010,08,14,07,48,22.80
2010,08,14,07,49,22.80
2010,08,14,07,50,22.80
2010,08,14,07,51,22.80
2010,08,14,07,52,22.70
2010,08,14,07,53,22.70
2010,08,14,07,54,22.70
2010,08,14,07,55,22.70
2010,08,14,07,56,22.80
2010,08,14,07,57,22.80
2010,08,14,07,58,22.80
2010,08,14,07,59,22.80
2010,08,14,08,00,22.80
2010,08,14,08,01,22.80
2010,08,14,08,02,22.80
2010,08,14,08,03,22.80
2010,08,14,08,04,22.90
2010,08,14,08,05,22.90
2010,08,14,08,06,22.90
2010,08,14,08,07,22.90
2010,08,14,08,08,23.00
2010,08,14,08,09,23.10
2010,08,14,08,10,23.10
2010,08,14,08,11,23.20
2010,08,14,08,12,23.20
2010,08,14,08,13,23.20
2010,08,14,08,14,23.20
2010,08,14,08,15,23.20
2010,08,14,08,16,23.30
2010,08,14,08,17,23.30
2010,08,14,08,18,23.30
2010,08,14,08,19,23.30
2010,08,14,08,20,23.30
2010,08,14,08,21,23.30
2010,08,14,08,22,23.30
2010,08,14,08,23,23.30
2010,08,14,08,24,23.30
2010,08,14,08,25,23.30
2010,08,14,08,26,23.30
2010,08,14,08,27,23.30
2010,08,14,08,28,23.40
2010,08,14,08,29,23.40
2010,08,14,08,30,23.40
2010,08,14,08,31,23.40
2010,08,14,08,32,23.40
2010,08,14,08,33,23.60
2010,08,14,08,34,23.60
2010,08,14,08,35,23.70
2010,08,14,08,36,23.70
2010,08,14,08,37,23.70
2010,08,14,08,38,23.70
2010,08,14,08,39,23.70
2010,08,14,08,40,23.70
2010,08,14,08,41,23.70
2010,08,14,08,42,23.70
2010,08,14,08,43,23.70
2010,08,14,08,44,23.80
2010,08,14,08,45,23.80
2010,08,14,08,46,23.80
2010,08,14,08,47,23.80
2010,08,14,08,48,23.90
2010,08,14,08,49,23.90
2010,08,14,08,50,23.90
2010,08,14,08,51,23.90
2010,08,14,08,52,23.90
2010,08,14,08,53,23.90
2010,08,14,08,54,24.00
2010,08,14,08,55,24.10
2010,08,14,08,56,24.00
2010,08,14,08,57,23.90
2010,08,14,08,58,24.00
2010,08,14,08,59,24.10
2010,08,14,09,00,24.10
2010,08,14,09,01,24.10
2010,08,14,09,02,24.10
2010,08,14,09,03,24.10
2010,08,14,09,04,24.10
2010,08,14,09,05,24.20
2010,08,14,09,06,24.30
2010,08,14,09,07,24.40
2010,08,14,09,08,24.40
2010,08,14,09,09,24.40
2010,08,14,09,10,24.50
2010,08,14,09,11,24.40
2010,08,14,09,12,24.40
2010,08,14,09,13,24.40
2010,08,14,09,14,24.40
2010,08,14,09,15,24.40
2010,08,14,09,16,24.50
2010,08,14,09,17,24.50
2010,08,14,09,18,24.50
2010,08,14,09,19,24.50
2010,08,14,09,20,24.50
2010,08,14,09,21,24.60
2010,08,14,09,22,24.60
2010,08,14,09,23,24.50
2010,08,14,09,24,24.50
2010,08,14,09,25,24.40
2010,08,14,09,26,24.40
2010,08,14,09,27,24.40
2010,08,14,09,28,24.50
2010,08,14,09,29,24.50
2010,08,14,09,30,24.50
2010,08,14,09,31,24.60
2010,08,14,09,32,24.70
2010,08,14,09,33,24.70
2010,08,14,09,34,24.70
2010,08,14,09,35,24.70
2010,08,14,09,36,24.80
2010,08,14,09,37,24.80
2010,08,14,09,38,24.90
2010,08,14,09,39,24.90
2010,08,14,09,40,24.90
2010,08,14,09,41,25.00
2010,08,14,09,42,24.90
2010,08,14,09,43,24.90
2010,08,14,09,44,24.90
2010,08,14,09,45,24.80
2010,08,14,09,46,24.80
2010,08,14,09,47,24.70
2010,08,14,09,48,24.70
2010,08,14,09,49,24.80
2010,08,14,09,50,24.80
2010,08,14,09,51,24.90
2010,08,14,09,52,24.90
2010,08,14,09,53,24.90
2010,08,14,09,54,24.90
2010,08,14,09,55,25.00
2010,08,14,09,56,25.00
2010,08,14,09,57,25.00
2010,08,14,09,58,25.00
2010,08,14,09,59,25.00
2010,08,14,10,00,25.00
2010,08,14,10,01,25.00
2010,08,14,10,02,25.00
2010,08,14,10,03,25.10
2010,08,14,10,04,25.20
2010,08,14,10,05,25.20
2010,08,14,10,06,25.20
2010,08,14,10,07,25.20
2010,08,14,10,08,25.20
2010,08,14,10,09,25.20
2010,08,14,10,10,25.20
2010,08,14,10,11,25.20
2010,08,14,10,12,25.20
2010,08,14,10,13,25.30
2010,08,14,10,14,25.30
2010,08,14,10,15,25.40
2010,08,14,10,16,25.40
2010,08,14,10,17,25.40
2010,08,14,10,18,25.40
2010,08,14,10,19,25.40
2010,08,14,10,20,25.50
2010,08,14,10,21,25.40
2010,08,14,10,22,25.40
2010,08,14,10,23,25.50
2010,08,14,10,24,25.40
2010,08,14,10,25,25.40
2010,08,14,10,26,25.40
2010,08,14,10,27,25.40
2010,08,14,10,28,25.40
2010,08,14,10,29,25.40
2010,08,14,10,30,25.40
2010,08,14,10,31,25.40
2010,08,14,10,32,25.50
2010,08,14,10,33,25.50
2010,08,14,10,34,25.60
2010,08,14,10,35,25.60
2010,08,14,10,36,25.70
2010,08,14,10,37,25.70
2010,08,14,10,38,25.70
2010,08,14,10,39,25.80
2010,08,14,10,40,25.80
2010,08,14,10,41,25.70
2010,08,14,10,42,25.70
2010,08,14,10,43,25.80
2010,08,14,10,44,25.80
2010,08,14,10,45,25.80
2010,08,14,10,46,25.90
2010,08,14,10,47,25.90
2010,08,14,10,48,25.90
2010,08,14,10,49,25.80
2010,08,14,10,50,25.70
2010,08,14,10,51,25.60
2010,08,14,10,52,25.60
2010,08,14,10,53,25.60
2010,08,14,10,54,25.50
2010,08,14,10,55,25.50
2010,08,14,10,56,25.50
2010,08,14,10,57,25.60
2010,08,14,10,58,25.60
2010,08,14,10,59,25.60
2010,08,14,11,00,25.80
2010,08,14,11,01,25.90
2010,08,14,11,02,26.00
2010,08,14,11,03,26.00
2010,08,14,11,04,26.10
2010,08,14,11,05,26.10
2010,08,14,11,06,26.10
2010,08,14,11,07,26.10
2010,08,14,11,08,26.10
2010,08,14,11,09,26.20
2010,08,14,11,10,26.20
2010,08,14,11,11,26.30
2010,08,14,11,12,26.40
2010,08,14,11,13,26.40
2010,08,14,11,14,26.40
2010,08,14,11,15,26.40
2010,08,14,11,16,26.30
2010,08,14,11,17,26.30
2010,08,14,11,18,26.30
2010,08,14,11,19,26.30
2010,08,14,11,20,26.20
2010,08,14,11,21,26.20
2010,08,14,11,22,26.20
2010,08,14,11,23,26.20
2010,08,14,11,24,26.20
2010,08,14,11,25,26.30
2010,08,14,11,26,26.30
2010,08,14,11,27,26.50
2010,08,14,11,28,26.60
2010,08,14,11,29,26.60
2010,08,14,11,30,26.60
2010,08,14,11,31,26.60
2010,08,14,11,32,26.60
2010,08,14,11,33,26.60
2010,08,14,11,34,26.60
2010,08,14,11,35,26.70
2010,08,14,11,36,26.80
2010,08,14,11,37,26.90
2010,08,14,11,38,26.90
2010,08,14,11,39,26.90
2010,08,14,11,40,26.80
2010,08,14,11,41,26.80
2010,08,14,11,42,26.80
2010,08,14,11,43,26.80
2010,08,14,11,44,26.80
2010,08,14,11,45,26.70
2010,08,14,11,46,26.70
2010,08,14,11,47,26.70
2010,08,14,11,48,26.60
2010,08,14,11,49,26.60
2010,08,14,11,50,26.60
2010,08,14,11,51,26.60
2010,08,14,11,52,26.60
2010,08,14,11,53,26.70
2010,08,14,11,54,26.80
2010,08,14,11,55,26.90
2010,08,14,11,56,27.00
2010,08,14,11,57,27.10
2010,08,14,11,58,27.30
2010,08,14,11,59,27.30
2010,08,14,12,00,27.40
2010,08,14,12,01,27.50
2010,08,14,12,02,27.60
2010,08,14,12,03,27.70
2010,08,14,12,04,27.70
2010,08,14,12,05,27.70
2010,08,14,12,06,27.70
2010,08,14,12,07,27.60
2010,08,14,12,08,27.50
2010,08,14,12,09,27.40
2010,08,14,12,10,27.40
2010,08,14,12,11,27.40
2010,08,14,12,12,27.40
2010,08,14,12,13,27.30
2010,08,14,12,14,27.30
2010,08,14,12,15,27.30
2010,08,14,12,16,27.30
2010,08,14,12,17,27.40
2010,08,14,12,18,27.50
2010,08,14,12,19,27.60
2010,08,14,12,20,27.70
2010,08,14,12,21,27.80
2010,08,14,12,22,27.70
2010,08,14,12,23,27.60
2010,08,14,12,24,27.50
2010,08,14,12,25,27.40
2010,08,14,12,26,27.30
2010,08,14,12,27,27.30
2010,08,14,12,28,27.50
2010,08,14,12,29,27.60
2010,08,14,12,30,27.70
2010,08,14,12,31,27.70
2010,08,14,12,32,27.80
2010,08,14,12,33,27.90
2010,08,14,12,34,28.00
2010,08,14,12,35,28.10
2010,08,14,12,36,28.20
2010,08,14,12,37,28.30
2010,08,14,12,38,28.40
2010,08,14,12,39,28.50
2010,08,14,12,40,28.60
2010,08,14,12,41,28.70
2010,08,14,12,42,28.70
2010,08,14,12,43,28.80
2010,08,14,12,44,28.80
2010,08,14,12,45,28.80
2010,08,14,12,46,28.80
2010,08,14,12,47,28.60
2010,08,14,12,48,28.50
2010,08,14,12,49,28.40
2010,08,14,12,50,28.30
2010,08,14,12,51,28.20
2010,08,14,12,52,28.00
2010,08,14,12,53,28.00
2010,08,14,12,54,27.90
2010,08,14,12,55,28.00
2010,08,14,12,56,28.20
2010,08,14,12,57,28.30
2010,08,14,12,58,28.40
2010,08,14,12,59,28.50
2010,08,14,13,00,28.60
2010,08,14,13,01,28.50
2010,08,14,13,02,28.40
2010,08,14,13,03,28.30
2010,08,14,13,04,28.40
2010,08,14,13,05,28.30
2010,08,14,13,06,28.30
2010,08,14,13,07,28.30
2010,08,14,13,08,28.30
2010,08,14,13,09,28.30
2010,08,14,13,10,28.40
2010,08,14,13,11,28.40
2010,08,14,13,12,28.50
2010,08,14,13,13,28.70
2010,08,14,13,14,28.80
2010,08,14,13,15,28.90
2010,08,14,13,16,28.90
2010,08,14,13,17,28.90
2010,08,14,13,18,28.90
2010,08,14,13,19,29.00
2010,08,14,13,20,29.00
2010,08,14,13,21,28.90
2010,08,14,13,22,29.10
2010,08,14,13,23,29.10
2010,08,14,13,24,29.20
2010,08,14,13,25,29.20
2010,08,14,13,26,29.20
2010,08,14,13,27,29.20
2010,08,14,13,28,29.30
2010,08,14,13,29,29.40
2010,08,14,13,30,29.40
2010,08,14,13,31,29.50
2010,08,14,13,32,29.50
2010,08,14,13,33,29.50
2010,08,14,13,34,29.50
2010,08,14,13,35,29.60
2010,08,14,13,36,29.60
2010,08,14,13,37,29.60
2010,08,14,13,38,29.60
2010,08,14,13,39,29.60
2010,08,14,13,40,29.60
2010,08,14,13,41,29.70
2010,08,14,13,42,29.70
2010,08,14,13,43,29.70
2010,08,14,13,44,29.70
2010,08,14,13,45,29.70
2010,08,14,13,46,29.70
2010,08,14,13,47,29.70
2010,08,14,13,48,29.70
2010,08,14,13,49,29.80
2010,08,14,13,50,29.70
2010,08,14,13,51,29.50
2010,08,14,13,52,29.40
2010,08,14,13,53,29.40
2010,08,14,13,54,29.40
2010,08,14,13,55,29.40
2010,08,14,13,56,29.40
2010,08,14,13,57,29.40
2010,08,14,13,58,29.40
2010,08,14,13,59,29.40
2010,08,14,14,00,29.30
2010,08,14,14,01,29.40
2010,08,14,14,02,29.50
2010,08,14,14,03,29.60
2010,08,14,14,04,29.50
2010,08,14,14,05,29.50
2010,08,14,14,06,29.50
2010,08,14,14,07,29.50
2010,08,14,14,08,29.50
2010,08,14,14,09,29.50
2010,08,14,14,10,29.40
2010,08,14,14,11,29.30
2010,08,14,14,12,29.30
2010,08,14,14,13,29.30
2010,08,14,14,14,29.30
2010,08,14,14,15,29.30
2010,08,14,14,16,29.20
2010,08,14,14,17,29.20
2010,08,14,14,18,29.20
2010,08,14,14,19,29.20
2010,08,14,14,20,29.20
2010,08,14,14,21,29.30
2010,08,14,14,22,29.40
2010,08,14,14,23,29.50
2010,08,14,14,24,29.50
2010,08,14,14,25,29.60
2010,08,14,14,26,29.60
2010,08,14,14,27,29.70
2010,08,14,14,28,29.70
2010,08,14,14,29,29.70
2010,08,14,14,30,29.70
2010,08,14,14,31,29.80
2010,08,14,14,32,29.80
2010,08,14,14,33,29.80
2010,08,14,14,34,29.80
2010,08,14,14,35,29.90
2010,08,14,14,36,29.80
2010,08,14,14,37,29.80
2010,08,14,14,38,29.80
2010,08,14,14,39,29.80
2010,08,14,14,40,29.80
2010,08,14,14,41,29.80
2010,08,14,14,42,29.90
2010,08,14,14,43,30.10
2010,08,14,14,44,30.10
2010,08,14,14,45,30.20
2010,08,14,14,46,30.30
2010,08,14,14,47,30.30
2010,08,14,14,48,30.20
2010,08,14,14,49,30.20
2010,08,14,14,50,30.30
2010,08,14,14,51,30.30
2010,08,14,14,52,30.30
2010,08,14,14,53,30.30
2010,08,14,14,54,30.30
2010,08,14,14,55,30.30
2010,08,14,14,56,30.30
2010,08,14,14,57,30.30
2010,08,14,14,58,30.30
2010,08,14,14,59,30.30
2010,08,14,15,00,30.30
2010,08,14,15,01,30.40
2010,08,14,15,02,30.50
2010,08,14,15,03,30.60
2010,08,14,15,04,30.70
2010,08,14,15,05,30.90
2010,08,14,15,06,30.90
2010,08,14,15,07,31.10
2010,08,14,15,08,31.10
2010,08,14,15,09,31.10
2010,08,14,15,10,31.10
2010,08,14,15,11,31.10
2010,08,14,15,12,31.10
2010,08,14,15,13,31.00
2010,08,14,15,14,31.00
2010,08,14,15,15,31.10
2010,08,14,15,16,31.10
2010,08,14,15,17,31.00
2010,08,14,15,18,31.00
2010,08,14,15,19,30.90
2010,08,14,15,20,30.90
2010,08,14,15,21,31.00
2010,08,14,15,22,31.00
2010,08,14,15,23,31.10
2010,08,14,15,24,31.20
2010,08,14,15,25,31.30
2010,08,14,15,26,31.30
2010,08,14,15,27,31.40
2010,08,14,15,28,31.50
2010,08,14,15,29,31.50
2010,08,14,15,30,31.40
2010,08,14,15,31,31.40
2010,08,14,15,32,31.30
2010,08,14,15,33,31.30
2010,08,14,15,34,31.40
2010,08,14,15,35,31.40
2010,08,14,15,36,31.50
2010,08,14,15,37,31.60
2010,08,14,15,38,31.70
2010,08,14,15,39,31.70
2010,08,14,15,40,31.60
2010,08,14,15,41,31.60
2010,08,14,15,42,31.70
2010,08,14,15,43,31.70
2010,08,14,15,44,31.70
2010,08,14,15,45,31.70
2010,08,14,15,46,31.80
2010,08,14,15,47,31.80
2010,08,14,15,48,31.80
2010,08,14,15,49,31.80
2010,08,14,15,50,31.80
2010,08,14,15,51,31.80
2010,08,14,15,52,31.80
2010,08,14,15,53,31.70
2010,08,14,15,54,31.70
2010,08,14,15,55,31.70
2010,08,14,15,56,31.70
2010,08,14,15,57,31.70
2010,08,14,15,58,31.70
2010,08,14,15,59,31.70
2010,08,14,16,00,31.60
2010,08,14,16,01,31.40
2010,08,14,16,02,31.40
2010,08,14,16,03,31.30
2010,08,14,16,04,31.30
2010,08,14,16,05,31.30
2010,08,14,16,06,31.30
2010,08,14,16,07,31.20
2010,08,14,16,08,31.20
2010,08,14,16,09,31.10
2010,08,14,16,10,31.10
2010,08,14,16,11,31.10
2010,08,14,16,12,31.10
2010,08,14,16,13,31.20
2010,08,14,16,14,31.30
2010,08,14,16,15,31.30
2010,08,14,16,16,31.30
2010,08,14,16,17,31.30
2010,08,14,16,18,31.30
2010,08,14,16,19,31.30
2010,08,14,16,20,31.30
2010,08,14,16,21,31.40
2010,08,14,16,22,31.60
2010,08,14,16,23,31.60
2010,08,14,16,24,31.60
2010,08,14,16,25,31.60
2010,08,14,16,26,31.50
2010,08,14,16,27,31.40
2010,08,14,16,28,31.40
2010,08,14,16,29,31.40
2010,08,14,16,30,31.40
2010,08,14,16,31,31.40
2010,08,14,16,32,31.50
2010,08,14,16,33,31.50
2010,08,14,16,34,31.40
2010,08,14,16,35,31.40
2010,08,14,16,36,31.40
2010,08,14,16,37,31.40
2010,08,14,16,38,31.40
2010,08,14,16,39,31.40
2010,08,14,16,40,31.40
2010,08,14,16,41,31.40
2010,08,14,16,42,31.40
2010,08,14,16,43,31.40
2010,08,14,16,44,31.40
2010,08,14,16,45,31.40
2010,08,14,16,46,31.40
2010,08,14,16,47,31.50
2010,08,14,16,48,31.60
2010,08,14,16,49,31.70
2010,08,14,16,50,31.70
2010,08,14,16,51,31.80
2010,08,14,16,52,31.90
2010,08,14,16,53,31.90
2010,08,14,16,54,31.90
2010,08,14,16,55,32.10
2010,08,14,16,56,32.10
2010,08,14,16,57,32.10
2010,08,14,16,58,32.10
2010,08,14,16,59,32.10
2010,08,14,17,00,32.10
2010,08,14,17,01,32.10
2010,08,14,17,02,32.00
2010,08,14,17,03,31.90
2010,08,14,17,04,31.70
2010,08,14,17,05,31.70
2010,08,14,17,06,31.70
2010,08,14,17,07,31.70
2010,08,14,17,08,31.70
2010,08,14,17,09,31.70
2010,08,14,17,10,31.80
2010,08,14,17,11,31.80
2010,08,14,17,12,31.70
2010,08,14,17,13,31.70
2010,08,14,17,14,31.70
2010,08,14,17,15,31.70
2010,08,14,17,16,31.70
2010,08,14,17,17,31.70
2010,08,14,17,18,31.70
2010,08,14,17,19,31.70